Temperature
21 21 22 21 17 14 12 12 13 12 10 10 9 8 8 7 8 7 7 8 8 9 9 10 10 11 11 12 12 12 12 12 13 13 13 13 13 13 13 13 13 14 14 14 14 14 15 15 16
22 22 22 20 14 12 12 12 12 12 11 10 9 8 8 8 8 8 7 8 8 9 10 10 10 11 11 11 11 12 12 12 12 12 12 12 12 12 12 13 13 13 13 13 13 14 14 14 15
22 22 20 13 11 11 12 12 12 11 11 10 8 8 8 8 8 7 7 8 9 9 10 10 10 10 11 11 11 11 11 11 12 12 12 12 12 12 12 12 12 12 12 13 13 13 13 14 14
22 21 16 12 10 10 10 10 12 13 11 9 8 8 8 8 7 7 8 8 9 9 9 10 10 10 10 10 10 11 11 11 11 11 11 11 12 11 11 12 12 12 12 12 12 12 13 13 13
22 19 12 10 10 10 10 10 10 10 10 9 8 8 7 7 7 7 8 8 9 9 9 9 9 10 10 10 10 10 10 10 10 10 10 11 11 11 11 11 11 11 11 11 12 12 12 12 13
21 15 12 10 11 11 10 10 10 9 9 9 8 7 6 6 7 7 8 8 8 8 9 9 9 9 9 9 9 9 9 9 9 9 9 9 10 10 10 10 10 10 11 11 11 11 12 12 12
19 12 11 11 11 11 11 10 9 8 8 8 9 7 6 6 6 7 7 8 8 8 8 8 8 8 8 8 8 8 8 7 7 7 7 7 7 8 8 8 9 9 9 10 10 10 11 11 12
20 13 12 12 11 10 10 9 9 8 8 8 8 7 5 5 6 7 7 7 7 7 8 8 7 7 7 7 7 6 6 6 5 5 5 5 5 6 6 6 7 7 8 8 8 9 10 11 11
20 12 11 13 11 10 10 9 8 8 7 7 6 6 5 6 7 8 8 7 7 7 7 7 6 6 6 5 5 5 4 4 4 3 3 3 4 4 4 5 5 5 6 6 7 8 9 10 10
16 10 11 12 11 10 10 9 8 7 6 6 5 5 6 7 7 7 7 6 6 6 5 5 5 4 4 4 3 3 3 2 2 2 1 1 1 2 2 3 4 4 4 5 5 6 7 8 9
13 10 11 11 11 11 9 9 8 7 6 6 5 5 6 6 6 6 6 5 5 4 4 4 3 3 2 2 2 2 1 1 1 1 -0 -0 0 0 1 2 2 2 3 3 4 5 5 6 7
11 11 11 11 11 10 9 8 8 7 6 6 6 6 6 6 6 5 5 5 4 3 2 2 2 2 2 1 1 1 1 0 -0 -1 -1 -2 -1 -1 -1 -0 -0 0 0 1 2 3 3 4 5
10 10 10 11 11 10 9 8 7 6 6 6 6 6 6 5 5 5 5 4 3 2 1 1 1 1 1 1 1 0 0 -0 -1 -2 -2 -3 -3 -3 -3 -2 -2 -2 -2 -1 -0 1 2 3 4
10 10 9 10 10 8 7 7 7 6 6 6 6 5 5 5 5 5 4 4 3 2 1 1 1 1 1 0 0 -0 -1 -1 -2 -2 -3 -3 -4 -4 -4 -4 -4 -4 -4 -3 -2 -1 -1 1 2
11 9 10 10 9 8 8 7 7 7 6 6 5 5 4 4 4 4 3 3 2 1 1 1 0 0 0 -0 -0 -1 -1 -2 -2 -3 -3 -4 -4 -5 -5 -5 -5 -6 -5 -5 -4 -3 -2 -1 1
11 10 10 10 9 9 8 7 7 7 7 6 5 4 4 4 4 3 3 3 2 1 1 0 -0 -0 -0 -0 -1 -1 -2 -2 -3 -3 -4 -4 -5 -5 -5 -6 -6 -6 -6 -6 -5 -5 -4 -3 -2
12 11 12 10 10 9 8 7 7 7 7 5 5 4 4 3 3 3 3 2 2 1 0 -0 -1 -1 -1 -1 -1 -2 -2 -3 -3 -4 -5 -5 -5 -6 -6 -7 -7 -7 -7 -7 -7 -7 -6 -5 -4
14 13 12 10 10 9 8 6 6 7 7 5 5 4 4 3 3 3 2 2 1 0 -0 -1 -1 -1 -1 -1 -1 -2 -2 -3 -4 -4 -5 -6 -6 -7 -7 -8 -8 -8 -8 -7 -7 -8 -7 -7 -6
15 14 12 11 11 10 8 5 5 6 6 5 4 4 4 3 3 2 2 2 1 0 -1 -2 -2 -2 -2 -2 -3 -3 -3 -4 -4 -5 -6 -6 -7 -7 -8 -8 -8 -8 -8 -8 -8 -8 -8 -7 -7
15 14 12 11 11 10 8 5 5 6 5 5 5 4 4 3 3 2 2 1 0 -1 -2 -3 -3 -3 -3 -4 -4 -5 -5 -5 -6 -6 -7 -7 -8 -8 -9 -9 -9 -9 -9 -9 -9 -9 -9 -8 -7
13 14 13 11 10 10 8 6 5 5 6 5 5 4 4 3 3 2 2 0 -1 -2 -3 -3 -3 -4 -4 -5 -5 -5 -5 -5 -6 -7 -7 -8 -8 -9 -10 -10 -10 -10 -10 -10 -10 -10 -10 -9 -8
14 13 13 11 10 8 9 8 4 4 4 4 4 3 3 3 2 2 1 -1 -2 -3 -3 -3 -4 -4 -5 -5 -6 -7 -7 -7 -8 -8 -9 -9 -9 -9 -10 -10 -11 -11 -11 -11 -10 -10 -10 -10 -9
13 13 12 12 11 9 8 8 5 4 4 3 3 3 2 2 2 1 -0 -1 -2 -3 -3 -4 -4 -5 -5 -6 -7 -7 -8 -8 -9 -9 -9 -9 -10 -10 -11 -11 -11 -11 -11 -11 -11 -11 -10 -10 -10
13 12 11 9 8 10 9 7 6 3 3 2 2 2 2 2 1 1 -0 -1 -2 -3 -4 -4 -5 -5 -6 -7 -7 -8 -8 -9 -9 -10 -10 -10 -11 -11 -11 -12 -12 -12 -12 -12 -11 -11 -11 -10 -10
11 11 10 11 10 10 9 7 6 3 3 3 2 2 2 1 1 0 -1 -2 -3 -4 -4 -5 -5 -6 -7 -7 -8 -8 -9 -9 -10 -10 -11 -11 -12 -12 -12 -12 -12 -13 -12 -12 -12 -11 -11 -10 -10
12 12 11 12 10 9 9 8 4 4 4 4 3 2 1 1 1 -0 -2 -3 -4 -4 -5 -5 -6 -6 -7 -7 -8 -9 -9 -10 -10 -11 -12 -12 -12 -13 -13 -13 -13 -13 -13 -12 -12 -11 -11 -10 -10
12 10 11 9 9 8 8 6 4 3 3 2 2 1 1 1 -0 -1 -2 -3 -4 -5 -5 -6 -6 -7 -7 -8 -9 -9 -10 -11 -11 -12 -12 -12 -13 -13 -13 -13 -13 -13 -13 -13 -12 -12 -11 -10 -10
12 10 8 9 10 9 8 7 5 3 2 1 1 1 1 -0 -1 -2 -3 -4 -4 -5 -5 -6 -6 -7 -8 -9 -9 -10 -11 -11 -12 -12 -13 -13 -13 -13 -13 -14 -14 -13 -13 -13 -12 -12 -11 -10 -9
12 12 10 8 8 8 8 8 6 3 2 1 1 1 0 -1 -2 -3 -4 -4 -5 -5 -5 -6 -7 -8 -8 -9 -10 -11 -11 -12 -12 -13 -13 -13 -13 -13 -14 -14 -14 -14 -13 -13 -12 -12 -11 -10 -9
11 11 10 9 9 7 6 7 5 2 3 2 1 0 -0 -1 -3 -3 -4 -4 -4 -5 -5 -6 -7 -8 -9 -10 -10 -11 -12 -12 -13 -13 -13 -13 -13 -13 -13 -14 -14 -13 -13 -13 -12 -11 -11 -10 -9
Wind_Speed
14 9 4 5 8 10 8 7 5 6 6 6 9 10 10 9 9 8 3 11 18 21 26 28 31 32 31 31 31 31 31 31 31 32 32 31 30 30 30 29 29 27 25 22 20 18 16 16 16
7 5 7 7 7 7 6 6 9 6 9 8 8 8 8 9 5 5 6 13 22 24 26 28 31 31 31 31 31 31 31 31 31 31 32 31 31 30 29 29 29 29 28 27 25 22 19 18 17
3 7 7 7 7 5 5 4 8 11 11 6 6 7 6 5 5 5 8 18 24 25 27 28 31 32 31 31 32 31 31 31 31 31 31 31 31 30 29 29 29 29 28 28 28 26 24 21 19
5 7 8 10 11 6 5 5 3 4 9 9 6 7 6 7 5 6 13 22 22 23 27 28 31 32 31 31 32 32 31 31 31 31 31 31 31 30 29 30 30 29 29 28 28 27 27 25 22
5 7 9 7 7 4 5 10 10 9 6 7 7 8 6 8 9 10 16 21 18 21 26 28 32 32 32 31 32 31 31 31 31 31 31 31 31 30 29 30 30 30 29 29 28 27 27 27 26
6 6 8 6 5 4 4 7 5 9 6 5 7 8 6 7 11 10 16 18 20 20 24 27 31 32 32 31 32 31 31 31 31 31 31 30 31 30 29 30 31 30 30 29 28 27 28 28 27
6 6 7 8 6 4 3 4 6 5 7 6 3 7 6 8 8 9 15 17 19 21 25 27 29 30 31 30 31 31 30 31 30 30 30 30 30 29 29 31 31 31 30 29 28 28 29 28 27
6 6 6 5 6 4 2 4 4 6 5 4 5 7 6 4 6 9 11 12 16 20 23 26 28 30 29 28 29 30 29 30 30 30 30 29 28 28 28 30 31 31 30 29 29 29 29 28 26
6 7 5 3 7 7 6 5 5 7 10 10 9 9 8 6 9 11 11 12 13 17 20 25 27 29 29 26 27 28 28 29 29 28 29 27 25 25 25 29 30 31 30 29 29 30 29 28 26
7 6 3 1 8 9 7 7 7 6 9 9 9 9 9 10 11 12 13 13 14 14 14 22 25 28 28 25 24 24 24 26 26 26 27 24 24 24 26 27 29 29 29 29 29 30 27 25 22
7 7 5 7 9 9 7 5 5 9 6 6 9 8 8 10 10 10 9 8 9 9 13 20 23 26 25 23 22 22 22 23 24 26 26 24 23 23 23 23 24 25 25 24 26 24 22 22 21
8 7 6 6 6 6 6 6 6 4 8 10 11 10 8 9 8 7 7 8 8 10 12 15 19 23 23 22 22 21 21 21 22 24 25 24 21 20 21 20 22 21 20 22 21 20 22 22 22
7 5 5 9 13 10 10 8 8 8 11 11 12 11 10 8 7 6 7 8 8 9 9 11 17 22 23 21 22 21 22 22 23 23 24 25 21 19 20 20 20 20 21 20 19 19 19 19 19
7 9 9 9 9 5 11 8 7 8 10 10 11 9 8 8 7 6 7 7 7 8 9 12 16 22 22 21 21 21 22 23 23 23 25 26 23 21 20 19 18 18 21 21 19 19 16 15 15
8 8 5 4 5 5 8 5 4 9 10 10 9 9 8 6 6 7 6 6 6 6 8 11 17 20 20 19 21 21 22 23 22 22 24 26 25 24 22 18 16 19 21 21 19 18 16 13 13
6 6 3 5 6 7 6 4 6 8 10 9 8 8 7 5 5 6 6 6 6 7 8 10 18 18 18 18 19 19 20 21 21 22 23 25 25 25 22 17 15 21 20 18 14 10 13 13 13
2 1 4 5 7 7 6 5 7 7 10 9 8 8 7 6 5 5 6 6 6 7 7 8 13 15 16 17 17 17 17 18 19 21 22 24 25 25 23 17 18 21 17 14 13 12 13 14 14
3 5 4 6 7 7 5 6 8 7 9 9 8 8 7 6 5 5 5 5 6 6 6 7 11 14 16 16 15 13 14 16 18 19 21 23 24 25 22 18 19 19 12 10 11 14 13 13 14
3 3 4 4 4 5 6 7 9 6 8 9 8 7 7 5 5 5 4 5 7 8 9 9 9 10 12 9 10 11 11 10 14 19 21 22 24 24 21 18 17 17 10 12 13 14 14 13 13
2 4 3 1 1 2 2 5 6 5 7 8 9 8 7 5 5 4 4 6 7 6 7 7 8 7 10 9 8 8 7 7 13 16 18 20 22 22 20 19 16 15 10 11 13 14 11 12 12
5 3 3 4 2 1 3 2 4 1 4 5 6 6 5 6 5 3 4 5 4 5 6 8 7 7 10 13 11 11 6 6 7 7 9 19 22 21 20 20 18 16 10 10 12 11 13 13 12
1 3 2 4 3 3 3 3 6 6 5 4 5 5 5 5 4 2 3 2 2 4 5 7 7 7 10 13 9 10 11 10 10 8 9 18 20 20 20 21 18 16 13 11 12 12 11 12 12
3 2 3 2 3 1 1 2 3 6 7 6 6 6 5 5 4 3 1 1 3 5 6 7 8 7 9 11 9 9 9 8 9 10 10 9 15 18 20 20 18 16 13 11 12 12 12 10 12
2 4 3 4 4 3 4 5 5 6 7 7 6 6 6 5 3 2 2 4 5 6 7 7 8 8 8 9 8 10 11 11 14 14 11 11 9 12 18 20 18 17 14 12 12 11 13 11 13
6 6 5 6 4 5 1 4 5 5 5 8 9 8 6 4 2 3 6 7 7 8 8 8 9 9 9 9 10 10 10 10 12 13 12 13 12 11 10 18 16 15 15 16 14 11 12 13 13
3 3 4 3 5 6 3 4 5 5 3 7 8 7 5 3 4 5 5 6 7 8 8 9 9 9 10 11 11 9 9 10 10 12 13 13 12 11 15 18 18 17 17 18 14 11 12 12 12
2 2 4 4 3 5 6 5 5 4 5 6 7 6 5 4 5 5 5 7 7 8 8 9 9 10 11 12 12 10 9 11 12 12 11 10 12 16 19 19 16 16 16 15 12 11 13 13 12
2 4 5 2 2 6 8 6 5 10 10 8 7 6 5 3 4 5 5 6 6 7 7 8 8 9 10 11 11 13 11 12 13 12 13 13 15 18 17 15 14 13 14 13 11 12 13 14 13
0 1 3 3 4 3 6 8 4 10 10 9 8 7 6 4 3 3 4 5 6 7 7 8 9 10 11 11 10 12 12 13 14 12 13 13 14 16 14 14 15 15 14 13 13 14 15 14 14
2 2 4 2 4 4 4 8 2 7 8 9 9 7 6 5 2 2 4 5 6 8 8 9 9 10 11 11 11 12 13 12 13 14 14 16 14 16 17 15 15 16 15 14 14 15 15 15 15
Wind_Direction
331 349 54 56 60 60 57 12 15 103 76 58 61 75 84 66 73 103 285 353 16 16 10 9 14 14 15 17 18 18 19 19 19 18 16 15 13 12 11 8 5 1 355 347 340 331 321 314 309
338 29 49 54 69 68 53 10 43 64 134 128 72 64 68 67 60 76 14 20 30 23 14 12 16 15 15 16 16 16 17 17 16 16 15 13 11 10 10 8 5 2 359 355 347 339 328 318 310
28 57 62 61 66 80 81 21 78 73 72 80 77 52 58 50 38 50 26 37 34 26 17 13 17 16 16 16 16 15 15 15 14 14 12 11 9 7 7 6 3 1 359 356 352 347 338 327 316
74 52 61 66 74 41 36 330 281 88 63 44 92 62 60 28 52 62 47 44 36 27 20 16 18 17 16 16 15 14 14 13 11 10 9 8 7 5 4 4 1 358 357 354 352 350 347 340 327
64 70 71 66 73 70 33 16 45 54 64 38 75 88 65 19 61 59 51 45 36 27 23 20 19 17 16 16 15 13 13 11 10 8 6 6 5 3 2 2 358 356 354 352 351 350 348 345 340
61 66 79 95 108 114 53 28 52 51 71 70 88 103 70 21 55 50 50 44 38 30 25 23 20 18 16 14 14 12 11 10 8 6 5 4 3 1 1 360 356 353 352 350 349 349 347 345 342
88 77 89 114 121 100 93 64 44 51 52 28 83 95 90 34 50 54 50 41 36 32 27 23 20 17 14 13 12 11 10 9 7 6 4 4 3 1 360 357 354 352 350 349 348 347 345 342 341
98 93 89 108 121 120 100 75 66 53 57 28 61 97 92 54 53 53 47 38 33 31 27 22 20 16 11 9 9 9 8 7 6 5 4 4 4 1 359 355 352 351 349 349 348 346 344 342 340
70 74 83 114 146 146 147 110 69 51 71 61 62 84 104 84 57 48 39 31 28 26 23 21 20 15 10 7 6 6 6 5 4 3 3 5 3 359 358 353 351 350 348 349 347 345 344 343 339
55 91 85 330 144 138 126 112 123 95 77 79 80 80 81 67 56 49 38 27 21 18 17 21 21 14 9 6 2 4 3 1 1 360 1 4 2 358 357 351 350 349 348 348 345 344 344 342 336
62 104 107 71 99 107 103 92 96 120 91 122 121 108 84 73 63 59 48 36 23 18 18 18 21 13 8 5 2 4 1 360 359 359 1 4 1 358 355 351 347 345 347 346 343 341 341 339 335
81 64 93 111 89 83 94 100 83 97 132 139 130 125 105 88 76 70 58 42 32 27 16 11 22 14 8 7 2 4 1 359 357 356 1 4 360 357 354 349 343 343 345 342 340 337 335 337 333
80 89 59 84 78 81 90 93 104 117 135 132 122 114 113 108 95 82 72 55 41 29 13 7 21 15 9 9 4 2 360 358 354 355 1 2 359 355 352 345 341 341 344 341 338 335 334 333 330
101 99 103 94 92 91 111 114 111 156 148 128 122 121 122 114 106 83 64 52 42 30 16 8 19 14 8 8 3 0 358 356 354 355 359 360 356 353 350 343 339 344 343 338 336 329 330 327 326
95 90 92 129 114 131 121 88 153 165 144 133 131 131 124 115 102 91 83 68 49 35 20 13 13 9 6 5 2 359 355 355 354 355 358 356 354 353 349 341 341 344 341 337 335 328 329 325 324
95 102 137 200 156 167 137 164 198 168 142 143 142 137 131 123 111 105 92 79 58 40 26 16 11 5 2 360 356 353 353 353 352 355 356 354 353 352 347 340 343 344 342 339 333 332 330 326 322
124 170 205 194 194 174 176 180 204 173 147 148 149 148 146 142 122 103 86 76 59 42 25 12 5 360 355 352 351 348 349 351 351 353 354 352 352 350 345 340 344 344 342 339 336 336 330 325 323
221 225 204 210 200 174 177 172 187 174 146 148 150 149 150 143 132 113 82 67 56 36 23 11 360 355 352 351 350 349 350 351 351 351 351 352 350 348 344 345 344 345 341 338 334 332 328 325 322
222 182 180 206 184 177 184 168 188 165 135 146 153 154 149 139 121 104 76 58 42 27 14 4 353 346 351 352 353 350 347 344 345 348 347 348 348 346 344 347 343 343 339 334 333 332 328 330 328
104 115 140 207 206 175 144 170 181 162 163 167 163 162 151 124 106 95 58 45 36 16 356 354 348 341 347 346 339 336 327 323 333 334 339 345 345 343 346 344 340 339 335 331 333 329 329 328 330
52 105 182 205 184 105 117 96 174 174 151 142 141 149 138 118 109 86 49 43 19 355 345 359 344 338 341 342 341 342 327 322 333 332 337 340 339 338 340 337 336 335 332 329 327 325 329 326 323
262 208 193 160 152 256 177 272 200 193 184 160 151 137 120 109 119 102 57 33 356 337 342 347 339 333 336 340 342 345 345 337 333 331 326 329 333 334 337 334 334 333 329 325 324 330 320 320 320
263 254 226 174 172 307 220 221 266 172 203 198 183 162 142 139 137 103 77 37 6 352 348 340 334 329 332 336 334 334 331 325 326 327 324 323 327 330 332 332 333 329 326 321 319 320 319 317 313
315 36 68 58 77 300 218 183 244 205 213 181 175 169 161 159 135 93 46 24 2 352 344 337 334 330 330 332 330 329 327 327 330 332 329 330 326 327 327 330 329 326 323 320 318 318 315 312 308
42 52 19 354 356 271 176 182 248 226 205 169 168 175 171 156 111 48 28 8 353 346 339 334 334 334 335 335 335 330 328 326 326 329 330 329 329 328 321 326 324 322 320 319 317 315 313 310 308
340 117 128 267 268 291 332 252 252 232 174 138 148 156 152 121 71 49 27 3 348 342 339 338 340 340 341 343 340 331 333 333 331 329 329 327 326 322 320 323 320 317 318 320 315 312 309 308 306
61 112 164 157 291 285 282 281 286 235 180 153 153 145 136 99 67 46 17 2 349 342 341 340 344 345 346 345 340 340 338 334 331 328 326 325 323 324 324 320 317 315 315 313 311 309 307 305 302
164 150 94 128 294 293 292 274 237 207 208 185 173 160 145 109 66 36 9 353 343 339 336 341 348 345 340 340 340 343 332 329 327 325 323 322 321 321 320 319 317 315 313 310 309 308 305 305 304
211 195 143 139 176 217 287 276 224 192 183 178 176 165 156 127 80 21 351 340 337 339 342 347 347 343 340 336 332 329 326 324 323 321 319 318 318 319 319 319 317 315 312 311 309 307 306 306 306
242 212 155 190 267 210 241 277 78 152 153 153 156 156 149 123 95 6 341 339 343 345 347 349 345 340 336 332 330 328 325 323 322 321 319 319 318 320 319 318 317 315 315 311 308 306 307 304 304
Height
1541 1541 1540 1542 1549 1571 1592 1596 1592 1594 1599 1602 1600 1602 1608 1613 1618 1629 1629 1622 1618 1614 1610 1605 1602 1598 1595 1591 1588 1585 1581 1578 1575 1572 1570 1567 1564 1562 1559 1557 1555 1553 1551 1549 1547 1545 1544 1542 1541
1542 1541 1543 1545 1565 1591 1601 1600 1596 1595 1599 1601 1602 1607 1610 1616 1621 1625 1625 1622 1618 1615 1611 1606 1603 1599 1595 1592 1588 1585 1581 1578 1575 1572 1569 1566 1563 1560 1558 1555 1553 1550 1548 1546 1544 1543 1541 1539 1538
1542 1542 1546 1559 1585 1599 1603 1601 1600 1599 1600 1601 1605 1610 1614 1621 1625 1626 1625 1622 1619 1615 1611 1607 1603 1599 1596 1592 1588 1584 1581 1577 1574 1571 1567 1564 1561 1558 1555 1553 1550 1548 1545 1543 1541 1539 1537 1536 1534
1544 1546 1556 1577 1597 1604 1605 1604 1600 1598 1600 1604 1607 1615 1622 1625 1627 1627 1625 1622 1618 1614 1611 1607 1603 1599 1595 1591 1588 1584 1580 1576 1573 1569 1566 1562 1559 1556 1553 1550 1547 1545 1542 1540 1537 1535 1533 1532 1530
1546 1551 1571 1594 1603 1606 1606 1603 1599 1600 1604 1609 1609 1619 1626 1629 1627 1626 1624 1621 1617 1614 1611 1607 1603 1599 1595 1591 1587 1582 1578 1574 1570 1566 1563 1559 1556 1553 1549 1547 1544 1541 1538 1536 1533 1531 1529 1527 1525
1549 1559 1584 1602 1605 1606 1607 1606 1604 1606 1608 1611 1614 1619 1628 1630 1627 1625 1623 1621 1617 1614 1611 1607 1603 1599 1594 1590 1586 1581 1576 1572 1567 1563 1559 1555 1552 1548 1545 1542 1539 1536 1534 1531 1528 1526 1524 1522 1521
1554 1570 1592 1601 1605 1607 1609 1608 1608 1610 1610 1612 1614 1620 1628 1628 1627 1625 1623 1620 1617 1614 1610 1606 1602 1597 1593 1588 1584 1579 1574 1569 1564 1559 1555 1551 1547 1543 1540 1537 1534 1531 1528 1525 1522 1520 1519 1517 1516
1558 1571 1591 1598 1604 1608 1609 1610 1612 1612 1613 1615 1616 1620 1626 1628 1627 1625 1623 1620 1617 1613 1609 1605 1600 1595 1591 1586 1581 1576 1571 1566 1561 1556 1551 1547 1543 1539 1535 1532 1529 1525 1522 1519 1516 1514 1512 1511 1510
1561 1579 1596 1597 1601 1606 1607 1610 1614 1616 1615 1616 1619 1622 1626 1627 1626 1624 1621 1619 1615 1611 1607 1603 1598 1593 1588 1583 1578 1573 1568 1563 1558 1553 1548 1543 1539 1535 1531 1527 1524 1520 1517 1513 1510 1508 1506 1504 1503
1566 1590 1596 1596 1596 1601 1606 1609 1614 1618 1618 1621 1623 1625 1626 1626 1624 1622 1619 1617 1613 1609 1605 1601 1596 1590 1585 1580 1575 1569 1565 1560 1555 1550 1545 1540 1536 1532 1527 1524 1520 1515 1512 1508 1505 1502 1500 1497 1496
1578 1591 1596 1597 1598 1602 1606 1610 1613 1616 1620 1622 1623 1624 1625 1624 1623 1621 1619 1617 1613 1610 1605 1599 1594 1588 1583 1577 1572 1567 1562 1557 1553 1548 1542 1537 1533 1528 1523 1519 1515 1511 1506 1503 1500 1497 1494 1491 1489
1585 1594 1596 1600 1601 1604 1607 1610 1614 1616 1619 1622 1623 1624 1624 1624 1622 1621 1619 1616 1613 1609 1604 1598 1592 1586 1581 1576 1570 1565 1560 1555 1550 1545 1540 1534 1529 1525 1520 1516 1512 1507 1502 1498 1495 1492 1488 1485 1483
1590 1597 1600 1602 1603 1606 1608 1612 1614 1619 1621 1622 1623 1623 1623 1623 1622 1621 1619 1616 1612 1607 1602 1596 1591 1585 1579 1574 1569 1564 1558 1553 1548 1544 1538 1533 1527 1522 1517 1513 1508 1504 1499 1495 1491 1487 1483 1480 1477
1594 1598 1602 1605 1606 1609 1611 1615 1616 1620 1621 1622 1622 1623 1623 1622 1622 1620 1618 1614 1610 1606 1601 1596 1590 1584 1579 1573 1568 1562 1557 1552 1547 1542 1536 1531 1526 1520 1515 1510 1505 1501 1496 1492 1487 1483 1478 1475 1471
1597 1602 1606 1607 1608 1611 1613 1617 1617 1618 1620 1621 1622 1622 1623 1622 1621 1619 1616 1613 1609 1605 1600 1594 1589 1583 1578 1572 1567 1562 1557 1551 1545 1540 1535 1529 1524 1518 1513 1508 1503 1498 1493 1488 1483 1479 1474 1470 1466
1599 1605 1608 1608 1608 1611 1615 1618 1617 1618 1620 1621 1622 1622 1622 1621 1620 1618 1615 1612 1608 1604 1599 1594 1588 1582 1577 1572 1566 1561 1555 1550 1544 1538 1533 1527 1521 1516 1511 1506 1501 1496 1490 1485 1480 1475 1470 1465 1460
1600 1604 1603 1607 1607 1608 1611 1615 1616 1618 1619 1620 1621 1622 1621 1620 1619 1617 1614 1611 1607 1603 1598 1592 1587 1581 1576 1570 1565 1559 1554 1548 1542 1536 1530 1524 1518 1513 1508 1503 1498 1493 1488 1483 1478 1473 1468 1462 1456
1596 1599 1601 1605 1604 1606 1609 1613 1615 1617 1618 1619 1621 1621 1621 1619 1618 1616 1613 1610 1606 1602 1597 1591 1586 1580 1574 1568 1562 1556 1551 1545 1540 1534 1528 1522 1516 1510 1505 1500 1495 1490 1484 1480 1475 1470 1465 1461 1455
1590 1592 1598 1601 1600 1603 1608 1613 1615 1616 1618 1619 1620 1620 1619 1618 1617 1615 1612 1609 1606 1601 1595 1589 1583 1577 1571 1564 1558 1551 1546 1541 1536 1531 1525 1519 1513 1508 1502 1497 1491 1486 1481 1476 1472 1467 1462 1457 1453
1587 1594 1600 1601 1600 1602 1608 1613 1615 1616 1617 1618 1618 1618 1618 1617 1616 1614 1611 1608 1604 1599 1594 1588 1582 1575 1569 1563 1557 1551 1545 1539 1533 1528 1522 1517 1511 1505 1499 1494 1488 1482 1477 1472 1468 1464 1459 1455 1452
1593 1593 1596 1599 1602 1603 1608 1615 1618 1617 1617 1618 1618 1617 1617 1616 1615 1613 1610 1606 1602 1597 1591 1586 1580 1574 1568 1561 1555 1548 1542 1535 1529 1523 1518 1513 1508 1502 1496 1490 1485 1479 1474 1469 1464 1461 1457 1452 1449
1593 1592 1593 1596 1602 1606 1605 1612 1619 1617 1617 1617 1617 1616 1616 1615 1613 1611 1608 1604 1600 1595 1590 1584 1578 1572 1566 1560 1553 1545 1538 1531 1525 1520 1514 1509 1504 1498 1493 1487 1481 1476 1470 1466 1461 1457 1454 1450 1446
1592 1591 1592 1593 1597 1603 1605 1610 1614 1616 1616 1615 1615 1615 1614 1614 1612 1609 1606 1602 1598 1594 1588 1583 1577 1571 1564 1558 1551 1544 1537 1531 1524 1517 1511 1505 1500 1494 1489 1483 1478 1472 1467 1462 1457 1453 1450 1446 1443
1590 1593 1594 1599 1603 1605 1600 1610 1606 1614 1610 1611 1613 1613 1613 1612 1610 1608 1605 1601 1597 1592 1586 1581 1574 1568 1562 1555 1549 1542 1535 1527 1520 1513 1506 1500 1495 1489 1485 1479 1474 1468 1463 1458 1453 1449 1445 1442 1439
1593 1599 1606 1602 1607 1602 1597 1603 1604 1607 1606 1607 1609 1611 1611 1610 1608 1606 1603 1599 1595 1590 1584 1578 1572 1566 1559 1553 1546 1539 1532 1525 1518 1510 1503 1496 1490 1484 1479 1475 1469 1464 1459 1454 1449 1444 1441 1437 1434
1596 1598 1608 1611 1612 1605 1597 1599 1608 1606 1606 1606 1608 1609 1609 1608 1607 1604 1601 1597 1593 1588 1582 1576 1569 1563 1557 1550 1543 1537 1530 1522 1515 1508 1501 1494 1487 1481 1476 1470 1465 1460 1454 1449 1444 1440 1436 1432 1429
1595 1601 1601 1610 1610 1612 1602 1604 1608 1605 1606 1607 1607 1608 1607 1607 1605 1603 1600 1596 1591 1586 1580 1574 1567 1561 1554 1547 1540 1533 1526 1519 1512 1505 1498 1491 1485 1478 1472 1466 1461 1455 1450 1445 1440 1435 1431 1428 1425
1596 1599 1607 1608 1610 1611 1603 1598 1602 1603 1603 1605 1605 1606 1606 1605 1603 1601 1598 1594 1589 1584 1579 1573 1566 1560 1553 1546 1538 1531 1524 1517 1510 1503 1496 1489 1483 1476 1469 1462 1456 1451 1445 1440 1435 1431 1427 1424 1421
1596 1597 1600 1609 1612 1614 1610 1596 1590 1592 1595 1600 1602 1604 1604 1603 1602 1599 1596 1592 1588 1583 1577 1570 1564 1557 1550 1543 1536 1529 1521 1515 1508 1501 1494 1488 1481 1474 1467 1460 1453 1446 1440 1435 1431 1426 1423 1420 1417
1595 1595 1600 1607 1607 1612 1615 1600 1590 1590 1593 1597 1600 1602 1602 1602 1600 1597 1594 1590 1585 1580 1574 1569 1562 1555 1548 1541 1534 1527 1520 1513 1506 1500 1493 1486 1479 1472 1465 1457 1450 1443 1436 1431 1426 1422 1420 1416 1413